Location: Anumalkud?ru
(16.4847°N, 80.6636°E)
Time: 09:15:14
(UTC+00:00)

OAO 2 Rocket - Pass Details

Date: 11 April 2026
Orbit: 668 x 734 km, 35.0° (Epoch: 11 May)

Event Time Altitude Azimuth Distance (km) Brightness Sun altitude
Exits shadow 23:18:28 - 314° (NW) 2,179 5.6 -16.3°
Reaches altitude 10° 23:18:44 10° 314° (NW) 2,082 5.5 -16.3°
Maximum altitude 23:23:27 51° 30° (NNE) 841 4.0 -15.2°
Drops below altitude 10° 23:28:13 10° 107° (ESE) 2,106 6.7 -14.1°
Sets 23:30:41 0° 112° (ESE) 3,030 7.6 -13.5°
